Time,TemperatureF,DewpointF,PressureIn,WindDirection,WindDirectionDegrees,WindSpeedMPH,WindSpeedGustMPH,Humidity,HourlyPrecipIn,Conditions,Clouds,dailyrainin,SoftwareType,DateUTC
2013-05-24 00:02:00,49.4,42.5,30.22,NE,53,0.0,18.0,77,0.00,,,0.00,Wunderground v.1.15,2013-05-24 05:02:00,
2013-05-24 00:04:00,49.3,42.4,30.22,NE,53,0.0,18.0,77,0.00,,,0.00,Wunderground v.1.15,2013-05-24 05:04:00,
2013-05-24 00:06:00,49.3,42.7,30.22,East,91,0.0,18.0,78,0.00,,,0.00,Wunderground v.1.15,2013-05-24 05:06:00,
2013-05-24 00:12:00,49.7,43.1,30.22,ENE,77,0.0,0.0,78,0.00,,,0.00,Wunderground v.1.15,2013-05-24 05:12:00,
2013-05-24 00:15:00,50.0,43.4,30.22,East,89,0.0,0.0,78,0.00,,,0.00,Wunderground v.1.15,2013-05-24 05:15:00,
2013-05-24 00:18:00,50.2,43.6,30.22,ENE,77,0.0,1.0,78,0.00,,,0.00,Wunderground v.1.15,2013-05-24 05:18:00,
2013-05-24 00:21:00,50.5,43.6,30.22,ENE,73,0.0,1.0,77,0.00,,,0.00,Wunderground v.1.15,2013-05-24 05:21:00,
2013-05-24 00:26:00,50.9,43.9,30.22,ENE,61,1.0,2.0,77,0.00,,,0.00,Wunderground v.1.15,2013-05-24 05:26:00,
2013-05-24 00:28:00,50.9,43.9,30.22,ENE,68,1.0,2.0,77,0.00,,,0.00,Wunderground v.1.15,2013-05-24 05:28:00,
2013-05-24 00:32:00,50.9,43.9,30.22,SE,144,1.0,1.0,77,0.00,,,0.00,Wunderground v.1.15,2013-05-24 05:32:00,
2013-05-24 00:34:00,50.9,43.6,30.23,SE,141,0.0,1.0,76,0.00,,,0.00,Wunderground v.1.15,2013-05-24 05:34:00,
2013-05-24 00:38:00,50.8,43.5,30.23,SE,139,0.0,1.0,76,0.00,,,0.00,Wunderground v.1.15,2013-05-24 05:38:00,
2013-05-24 00:39:00,50.8,43.5,30.23,SE,146,0.0,0.0,76,0.00,,,0.00,Wunderground v.1.15,2013-05-24 05:39:00,
2013-05-24 00:42:00,50.7,43.4,30.23,SE,129,0.0,1.0,76,0.00,,,0.00,Wunderground v.1.15,2013-05-24 05:42:00,
2013-05-24 00:43:00,50.6,43.3,30.23,SE,143,0.0,1.0,76,0.00,,,0.00,Wunderground v.1.15,2013-05-24 05:43:00,
2013-05-24 00:46:00,50.6,43.3,30.23,East,83,0.0,2.0,76,0.00,,,0.00,Wunderground v.1.15,2013-05-24 05:46:00,
2013-05-24 00:48:00,50.6,43.0,30.23,ESE,103,0.0,2.0,75,0.00,,,0.00,Wunderground v.1.15,2013-05-24 05:48:00,
2013-05-24 00:51:00,50.7,43.1,30.22,ENE,75,1.0,1.0,75,0.00,,,0.00,Wunderground v.1.15,2013-05-24 05:51:00,
2013-05-24 00:54:00,50.7,43.4,30.23,ENE,58,1.0,2.0,76,0.00,,,0.00,Wunderground v.1.15,2013-05-24 05:54:00,
2013-05-24 00:56:00,50.8,43.5,30.23,ENE,75,1.0,2.0,76,0.00,,,0.00,Wunderground v.1.15,2013-05-24 05:56:00,
2013-05-24 01:00:00,50.9,43.6,30.22,NE,50,1.0,2.0,76,0.00,,,0.00,Wunderground v.1.15,2013-05-24 06:00:00,
2013-05-24 01:02:00,51.0,43.7,30.22,ENE,65,1.0,2.0,76,0.00,,,0.00,Wunderground v.1.15,2013-05-24 06:02:00,
2013-05-24 01:08:00,50.9,43.3,30.22,ENE,71,1.0,2.0,75,0.00,,,0.00,Wunderground v.1.15,2013-05-24 06:08:00,
2013-05-24 01:11:00,50.8,43.5,30.22,ENE,64,1.0,2.0,76,0.00,,,0.00,Wunderground v.1.15,2013-05-24 06:11:00,
2013-05-24 01:14:00,50.8,43.5,30.22,East,82,1.0,2.0,76,0.00,,,0.00,Wunderground v.1.15,2013-05-24 06:14:00,
2013-05-24 01:15:00,50.7,43.4,30.22,SE,139,1.0,2.0,76,0.00,,,0.00,Wunderground v.1.15,2013-05-24 06:15:00,
2013-05-24 01:20:00,50.6,43.7,30.22,ESE,115,0.0,2.0,77,0.00,,,0.00,Wunderground v.1.15,2013-05-24 06:20:00,
2013-05-24 01:24:00,50.5,43.9,30.23,SE,145,1.0,2.0,78,0.00,,,0.00,Wunderground v.1.15,2013-05-24 06:24:00,
2013-05-24 01:26:00,50.4,43.5,30.23,SE,142,1.0,2.0,77,0.00,,,0.00,Wunderground v.1.15,2013-05-24 06:26:00,
2013-05-24 01:30:00,50.3,43.0,30.23,SE,141,1.0,2.0,76,0.00,,,0.00,Wunderground v.1.15,2013-05-24 06:30:00,
2013-05-24 01:32:00,50.3,43.0,30.23,East,81,1.0,2.0,76,0.00,,,0.00,Wunderground v.1.15,2013-05-24 06:32:00,
2013-05-24 01:35:00,50.1,42.8,30.23,NNE,12,1.0,2.0,76,0.00,,,0.00,Wunderground v.1.15,2013-05-24 06:35:00,
2013-05-24 01:37:00,50.1,43.2,30.23,SE,129,1.0,2.0,77,0.00,,,0.00,Wunderground v.1.15,2013-05-24 06:37:00,
2013-05-24 01:40:00,50.0,42.7,30.23,SE,138,1.0,2.0,76,0.00,,,0.00,Wunderground v.1.15,2013-05-24 06:40:00,
2013-05-24 01:42:00,49.9,43.0,30.23,SE,145,1.0,2.0,77,0.00,,,0.00,Wunderground v.1.15,2013-05-24 06:42:00,
2013-05-24 01:44:00,49.8,42.9,30.23,SE,138,1.0,2.0,77,0.00,,,0.00,Wunderground v.1.15,2013-05-24 06:44:00,
2013-05-24 01:48:00,49.6,43.0,30.23,South,187,1.0,2.0,78,0.00,,,0.00,Wunderground v.1.15,2013-05-24 06:48:00,
2013-05-24 01:52:00,49.6,43.0,30.23,SSE,150,1.0,2.0,78,0.00,,,0.00,Wunderground v.1.15,2013-05-24 06:52:00,
2013-05-24 01:56:00,49.6,42.7,30.23,SE,144,1.0,2.0,77,0.00,,,0.00,Wunderground v.1.15,2013-05-24 06:56:00,
2013-05-24 01:57:00,49.6,43.0,30.23,ESE,117,1.0,2.0,78,0.00,,,0.00,Wunderground v.1.15,2013-05-24 06:57:00,
2013-05-24 01:59:00,49.6,43.0,30.23,SSE,159,1.0,2.0,78,0.00,,,0.00,Wunderground v.1.15,2013-05-24 06:59:00,
2013-05-24 02:04:00,49.7,43.1,30.23,SSE,154,1.0,2.0,78,0.00,,,0.00,Wunderground v.1.15,2013-05-24 07:04:00,
2013-05-24 02:06:00,49.6,43.4,30.23,SE,141,1.0,2.0,79,0.00,,,0.00,Wunderground v.1.15,2013-05-24 07:06:00,
2013-05-24 02:10:00,49.5,43.3,30.23,SSE,160,0.0,2.0,79,0.00,,,0.00,Wunderground v.1.15,2013-05-24 07:10:00,
2013-05-24 02:12:00,49.5,43.3,30.23,SE,127,0.0,2.0,79,0.00,,,0.00,Wunderground v.1.15,2013-05-24 07:12:00,
2013-05-24 02:14:00,49.5,43.3,30.23,SE,136,0.0,2.0,79,0.00,,,0.00,Wunderground v.1.15,2013-05-24 07:14:00,
2013-05-24 02:16:00,49.5,43.3,30.23,SSE,152,0.0,2.0,79,0.00,,,0.00,Wunderground v.1.15,2013-05-24 07:16:00,
2013-05-24 02:19:00,49.3,42.7,30.23,SE,136,0.0,2.0,78,0.00,,,0.00,Wunderground v.1.15,2013-05-24 07:19:00,
2013-05-24 02:22:00,49.3,43.1,30.23,SE,135,0.0,2.0,79,0.00,,,0.00,Wunderground v.1.15,2013-05-24 07:22:00,
2013-05-24 02:26:00,49.3,43.4,30.23,SE,135,1.0,2.0,80,0.00,,,0.00,Wunderground v.1.15,2013-05-24 07:26:00,
2013-05-24 02:28:00,49.4,43.2,30.24,SE,134,1.0,2.0,79,0.00,,,0.00,Wunderground v.1.15,2013-05-24 07:28:00,
2013-05-24 02:32:00,49.3,42.7,30.23,SE,143,2.0,2.0,78,0.00,,,0.00,Wunderground v.1.15,2013-05-24 07:32:00,
2013-05-24 02:34:00,49.2,42.6,30.24,SE,142,2.0,2.0,78,0.00,,,0.00,Wunderground v.1.15,2013-05-24 07:34:00,
2013-05-24 02:36:00,49.1,42.5,30.24,SE,138,1.0,2.0,78,0.00,,,0.00,Wunderground v.1.15,2013-05-24 07:36:00,
2013-05-24 02:39:00,49.0,42.8,30.23,SE,145,1.0,2.0,79,0.00,,,0.00,Wunderground v.1.15,2013-05-24 07:39:00,
2013-05-24 02:44:00,48.8,42.9,30.23,ENE,75,1.0,2.0,80,0.00,,,0.00,Wunderground v.1.15,2013-05-24 07:44:00,
2013-05-24 02:46:00,48.7,43.1,30.23,SE,131,1.0,2.0,81,0.00,,,0.00,Wunderground v.1.15,2013-05-24 07:46:00,
2013-05-24 02:48:00,48.6,42.7,30.24,SE,127,1.0,2.0,80,0.00,,,0.00,Wunderground v.1.15,2013-05-24 07:48:00,
2013-05-24 02:50:00,48.6,43.0,30.24,SE,125,1.0,2.0,81,0.00,,,0.00,Wunderground v.1.15,2013-05-24 07:50:00,
2013-05-24 02:54:00,48.8,43.2,30.24,SE,131,1.0,2.0,81,0.00,,,0.00,Wunderground v.1.15,2013-05-24 07:54:00,
2013-05-24 02:56:00,48.9,43.3,30.24,SE,143,1.0,2.0,81,0.00,,,0.00,Wunderground v.1.15,2013-05-24 07:56:00,
2013-05-24 03:00:00,49.0,43.4,30.24,SE,142,1.0,2.0,81,0.00,,,0.00,Wunderground v.1.15,2013-05-24 08:00:00,
2013-05-24 03:01:00,49.0,43.4,30.24,SE,134,1.0,2.0,81,0.00,,,0.00,Wunderground v.1.15,2013-05-24 08:01:00,
2013-05-24 03:04:00,49.0,43.7,30.24,SE,126,1.0,2.0,82,0.00,,,0.00,Wunderground v.1.15,2013-05-24 08:04:00,
2013-05-24 03:06:00,49.0,43.4,30.23,ENE,73,1.0,2.0,81,0.00,,,0.00,Wunderground v.1.15,2013-05-24 08:06:00,
2013-05-24 03:08:00,49.0,43.4,30.24,SE,142,1.0,2.0,81,0.00,,,0.00,Wunderground v.1.15,2013-05-24 08:08:00,
2013-05-24 03:10:00,49.0,43.4,30.23,SE,143,1.0,1.0,81,0.00,,,0.00,Wunderground v.1.15,2013-05-24 08:10:00,
2013-05-24 03:12:00,48.9,43.3,30.23,SE,143,1.0,2.0,81,0.00,,,0.00,Wunderground v.1.15,2013-05-24 08:12:00,
2013-05-24 03:13:00,48.9,43.3,30.23,SSE,163,1.0,2.0,81,0.00,,,0.00,Wunderground v.1.15,2013-05-24 08:13:00,
2013-05-24 03:15:00,48.9,43.0,30.23,SSE,148,0.0,2.0,80,0.00,,,0.00,Wunderground v.1.15,2013-05-24 08:15:00,
2013-05-24 03:22:00,48.9,43.3,30.23,SSE,162,1.0,2.0,81,0.00,,,0.00,Wunderground v.1.15,2013-05-24 08:22:00,
2013-05-24 03:24:00,49.0,43.1,30.23,South,169,1.0,2.0,80,0.00,,,0.00,Wunderground v.1.15,2013-05-24 08:24:00,
2013-05-24 03:30:00,48.9,43.3,30.23,SE,138,1.0,2.0,81,0.00,,,0.00,Wunderground v.1.15,2013-05-24 08:30:00,
2013-05-24 03:34:00,49.1,43.5,30.23,SSE,155,1.0,2.0,81,0.00,,,0.00,Wunderground v.1.15,2013-05-24 08:34:00,
2013-05-24 03:35:00,49.1,43.5,30.23,SSE,151,1.0,2.0,81,0.00,,,0.00,Wunderground v.1.15,2013-05-24 08:35:00,
2013-05-24 03:38:00,49.1,43.2,30.23,SE,142,1.0,2.0,80,0.00,,,0.00,Wunderground v.1.15,2013-05-24 08:38:00,
2013-05-24 03:40:00,49.1,43.2,30.23,SSE,154,1.0,1.0,80,0.00,,,0.00,Wunderground v.1.15,2013-05-24 08:40:00,
2013-05-24 03:43:00,49.0,43.7,30.23,SSE,150,1.0,2.0,82,0.00,,,0.00,Wunderground v.1.15,2013-05-24 08:43:00,
2013-05-24 03:46:00,48.9,43.3,30.23,SE,141,1.0,2.0,81,0.00,,,0.00,Wunderground v.1.15,2013-05-24 08:46:00,
2013-05-24 03:49:00,48.7,42.8,30.23,SE,144,1.0,1.0,80,0.00,,,0.00,Wunderground v.1.15,2013-05-24 08:49:00,
2013-05-24 03:51:00,48.7,43.1,30.23,SE,145,1.0,2.0,81,0.00,,,0.00,Wunderground v.1.15,2013-05-24 08:51:00,
2013-05-24 03:56:00,48.5,42.9,30.23,ENE,69,1.0,2.0,81,0.00,,,0.00,Wunderground v.1.15,2013-05-24 08:56:00,
2013-05-24 03:58:00,48.5,42.9,30.23,South,181,1.0,2.0,81,0.00,,,0.00,Wunderground v.1.15,2013-05-24 08:58:00,
2013-05-24 04:00:00,48.5,42.6,30.23,SE,139,1.0,2.0,80,0.00,,,0.00,Wunderground v.1.15,2013-05-24 09:00:00,
2013-05-24 04:04:00,48.3,42.4,30.23,East,97,1.0,2.0,80,0.00,,,0.00,Wunderground v.1.15,2013-05-24 09:04:00,
2013-05-24 04:08:00,48.1,42.5,30.23,ENE,62,1.0,2.0,81,0.00,,,0.00,Wunderground v.1.15,2013-05-24 09:08:00,
2013-05-24 04:09:00,48.1,42.5,30.23,ENE,58,1.0,1.0,81,0.00,,,0.00,Wunderground v.1.15,2013-05-24 09:09:00,
2013-05-24 04:11:00,48.0,42.8,30.23,NE,49,1.0,2.0,82,0.00,,,0.00,Wunderground v.1.15,2013-05-24 09:11:00,
2013-05-24 04:16:00,47.9,42.3,30.23,East,81,1.0,2.0,81,0.00,,,0.00,Wunderground v.1.15,2013-05-24 09:16:00,
2013-05-24 04:22:00,47.8,42.6,30.23,SE,125,1.0,2.0,82,0.00,,,0.00,Wunderground v.1.15,2013-05-24 09:22:00,
2013-05-24 04:26:00,47.7,42.2,30.23,NE,44,1.0,2.0,81,0.00,,,0.00,Wunderground v.1.15,2013-05-24 09:26:00,
2013-05-24 04:28:00,47.6,42.1,30.23,ENE,73,1.0,2.0,81,0.00,,,0.00,Wunderground v.1.15,2013-05-24 09:28:00,
2013-05-24 04:34:00,47.4,42.5,30.23,SE,128,1.0,3.0,83,0.00,,,0.00,Wunderground v.1.15,2013-05-24 09:34:00,
2013-05-24 04:40:00,47.3,42.4,30.23,SSE,148,1.0,2.0,83,0.00,,,0.00,Wunderground v.1.15,2013-05-24 09:40:00,
2013-05-24 04:42:00,47.2,42.3,30.23,SE,134,1.0,2.0,83,0.00,,,0.00,Wunderground v.1.15,2013-05-24 09:42:00,
2013-05-24 04:44:00,47.2,42.3,30.23,SE,138,1.0,2.0,83,0.00,,,0.00,Wunderground v.1.15,2013-05-24 09:44:00,
2013-05-24 04:46:00,47.1,42.2,30.23,South,172,1.0,2.0,83,0.00,,,0.00,Wunderground v.1.15,2013-05-24 09:46:00,
2013-05-24 04:48:00,47.1,42.5,30.23,SSW,203,1.0,2.0,84,0.00,,,0.00,Wunderground v.1.15,2013-05-24 09:48:00,
2013-05-24 04:50:00,47.1,42.8,30.23,NE,46,1.0,3.0,85,0.00,,,0.00,Wunderground v.1.15,2013-05-24 09:50:00,
2013-05-24 04:52:00,47.1,42.5,30.22,South,188,1.0,3.0,84,0.00,,,0.00,Wunderground v.1.15,2013-05-24 09:52:00,
2013-05-24 04:56:00,47.1,42.5,30.22,SSE,152,1.0,3.0,84,0.00,,,0.00,Wunderground v.1.15,2013-05-24 09:56:00,
2013-05-24 04:57:00,47.1,42.8,30.23,SE,136,1.0,3.0,85,0.00,,,0.00,Wunderground v.1.15,2013-05-24 09:57:00,
2013-05-24 05:02:00,47.2,42.9,30.23,SSE,147,2.0,2.0,85,0.00,,,0.00,Wunderground v.1.15,2013-05-24 10:02:00,
2013-05-24 05:06:00,47.3,42.7,30.23,SSE,162,2.0,3.0,84,0.00,,,0.00,Wunderground v.1.15,2013-05-24 10:06:00,
2013-05-24 05:08:00,47.3,42.7,30.23,SE,132,2.0,3.0,84,0.00,,,0.00,Wunderground v.1.15,2013-05-24 10:08:00,
2013-05-24 05:12:00,47.3,43.0,30.23,SE,145,2.0,2.0,85,0.00,,,0.00,Wunderground v.1.15,2013-05-24 10:12:00,
2013-05-24 05:14:00,47.3,42.7,30.23,SSE,148,2.0,3.0,84,0.00,,,0.00,Wunderground v.1.15,2013-05-24 10:14:00,
2013-05-24 05:18:00,47.2,42.6,30.23,SE,141,2.0,3.0,84,0.00,,,0.00,Wunderground v.1.15,2013-05-24 10:18:00,
2013-05-24 05:22:00,47.3,43.0,30.23,SE,136,3.0,4.0,85,0.00,,,0.00,Wunderground v.1.15,2013-05-24 10:22:00,
2013-05-24 05:23:00,47.2,42.3,30.23,SSE,149,3.0,4.0,83,0.00,,,0.00,Wunderground v.1.15,2013-05-24 10:23:00,
2013-05-24 05:25:00,47.1,41.9,30.23,SE,136,3.0,5.0,82,0.00,,,0.00,Wunderground v.1.15,2013-05-24 10:25:00,
2013-05-24 05:30:00,46.9,42.6,30.23,SE,134,3.0,3.0,85,0.00,,,0.00,Wunderground v.1.15,2013-05-24 10:30:00,
2013-05-24 05:32:00,46.9,42.3,30.23,SE,139,4.0,4.0,84,0.00,,,0.00,Wunderground v.1.15,2013-05-24 10:32:00,
2013-05-24 05:36:00,46.7,42.1,30.23,SSE,150,3.0,4.0,84,0.00,,,0.00,Wunderground v.1.15,2013-05-24 10:36:00,
2013-05-24 05:38:00,46.7,42.4,30.23,SSE,153,3.0,4.0,85,0.00,,,0.00,Wunderground v.1.15,2013-05-24 10:38:00,
2013-05-24 05:42:00,46.7,42.1,30.23,SSE,162,3.0,4.0,84,0.00,,,0.00,Wunderground v.1.15,2013-05-24 10:42:00,
2013-05-24 05:44:00,46.6,42.0,30.23,SSE,165,2.0,4.0,84,0.00,,,0.00,Wunderground v.1.15,2013-05-24 10:44:00,
2013-05-24 05:47:00,46.6,42.0,30.22,SE,145,2.0,4.0,84,0.00,,,0.00,Wunderground v.1.15,2013-05-24 10:47:00,
2013-05-24 05:49:00,46.6,42.0,30.23,SE,144,2.0,5.0,84,0.00,,,0.00,Wunderground v.1.15,2013-05-24 10:49:00,
2013-05-24 05:51:00,46.6,41.7,30.23,SE,132,3.0,5.0,83,0.00,,,0.00,Wunderground v.1.15,2013-05-24 10:51:00,
2013-05-24 05:56:00,46.7,42.1,30.23,SE,134,3.0,5.0,84,0.00,,,0.00,Wunderground v.1.15,2013-05-24 10:56:00,
2013-05-24 06:00:00,46.6,41.4,30.23,SSE,158,4.0,4.0,82,0.00,,,0.00,Wunderground v.1.15,2013-05-24 11:00:00,
2013-05-24 06:02:00,46.6,41.4,30.23,SSE,150,3.0,4.0,82,0.00,,,0.00,Wunderground v.1.15,2013-05-24 11:02:00,
2013-05-24 06:06:00,46.7,41.8,30.23,SSE,167,3.0,4.0,83,0.00,,,0.00,Wunderground v.1.15,2013-05-24 11:06:00,
2013-05-24 06:08:00,46.6,41.4,30.23,SE,141,3.0,4.0,82,0.00,,,0.00,Wunderground v.1.15,2013-05-24 11:08:00,
2013-05-24 06:09:00,46.7,41.5,30.23,SSE,155,3.0,4.0,82,0.00,,,0.00,Wunderground v.1.15,2013-05-24 11:09:00,
2013-05-24 06:11:00,46.9,41.7,30.23,SE,133,3.0,5.0,82,0.00,,,0.00,Wunderground v.1.15,2013-05-24 11:11:00,
2013-05-24 06:16:00,47.1,40.9,30.23,SE,136,4.0,6.0,79,0.00,,,0.00,Wunderground v.1.15,2013-05-24 11:16:00,
2013-05-24 06:18:00,47.2,41.3,30.23,SE,134,5.0,6.0,80,0.00,,,0.00,Wunderground v.1.15,2013-05-24 11:18:00,
2013-05-24 06:22:00,47.4,41.2,30.23,SE,132,6.0,6.0,79,0.00,,,0.00,Wunderground v.1.15,2013-05-24 11:22:00,
2013-05-24 06:24:00,47.5,41.0,30.23,SSE,149,6.0,6.0,78,0.00,,,0.00,Wunderground v.1.15,2013-05-24 11:24:00,
2013-05-24 06:28:00,47.6,40.4,30.23,SE,142,6.0,7.0,76,0.00,,,0.00,Wunderground v.1.15,2013-05-24 11:28:00,
2013-05-24 06:30:00,47.7,40.5,30.23,SE,128,6.0,6.0,76,0.00,,,0.00,Wunderground v.1.15,2013-05-24 11:30:00,
2013-05-24 06:33:00,48.0,40.8,30.23,SE,141,6.0,6.0,76,0.00,,,0.00,Wunderground v.1.15,2013-05-24 11:33:00,
2013-05-24 06:36:00,48.2,41.0,30.23,SE,132,6.0,8.0,76,0.00,,,0.00,Wunderground v.1.15,2013-05-24 11:36:00,
2013-05-24 06:40:00,48.4,41.2,30.23,SE,136,6.0,7.0,76,0.00,,,0.00,Wunderground v.1.15,2013-05-24 11:40:00,
2013-05-24 06:42:00,48.5,40.9,30.23,SE,133,6.0,7.0,75,0.00,,,0.00,Wunderground v.1.15,2013-05-24 11:42:00,
2013-05-24 06:48:00,48.6,41.0,30.24,SE,133,7.0,7.0,75,0.00,,,0.00,Wunderground v.1.15,2013-05-24 11:48:00,
2013-05-24 06:50:00,48.7,41.8,30.24,SE,131,6.0,6.0,77,0.00,,,0.00,Wunderground v.1.15,2013-05-24 11:50:00,
2013-05-24 06:51:00,48.7,40.4,30.24,SSE,150,6.0,6.0,73,0.00,,,0.00,Wunderground v.1.15,2013-05-24 11:51:00,
2013-05-24 06:55:00,48.7,41.1,30.24,SE,134,6.0,7.0,75,0.00,,,0.00,Wunderground v.1.15,2013-05-24 11:55:00,
2013-05-24 07:00:00,48.7,40.8,30.24,SSE,149,6.0,6.0,74,0.00,,,0.00,Wunderground v.1.15,2013-05-24 12:00:00,
2013-05-24 07:04:00,48.7,41.1,30.25,SE,142,6.0,6.0,75,0.00,,,0.00,Wunderground v.1.15,2013-05-24 12:04:00,
2013-05-24 07:06:00,48.7,41.5,30.25,SE,145,6.0,6.0,76,0.00,,,0.00,Wunderground v.1.15,2013-05-24 12:06:00,
2013-05-24 07:08:00,48.7,40.8,30.25,SE,128,6.0,6.0,74,0.00,,,0.00,Wunderground v.1.15,2013-05-24 12:08:00,
2013-05-24 07:10:00,48.7,40.8,30.25,SE,128,6.0,7.0,74,0.00,,,0.00,Wunderground v.1.15,2013-05-24 12:10:00,
2013-05-24 07:12:00,48.7,41.1,30.25,SE,124,6.0,7.0,75,0.00,,,0.00,Wunderground v.1.15,2013-05-24 12:12:00,
2013-05-24 07:18:00,49.1,41.5,30.25,SE,125,5.0,7.0,75,0.00,,,0.00,Wunderground v.1.15,2013-05-24 12:18:00,
2013-05-24 07:22:00,49.2,41.3,30.25,SE,140,5.0,6.0,74,0.00,,,0.00,Wunderground v.1.15,2013-05-24 12:22:00,
2013-05-24 07:24:00,49.3,42.1,30.25,SE,132,5.0,6.0,76,0.00,,,0.00,Wunderground v.1.15,2013-05-24 12:24:00,
2013-05-24 07:28:00,49.4,41.1,30.25,ESE,118,5.0,6.0,73,0.00,,,0.00,Wunderground v.1.15,2013-05-24 12:28:00,
2013-05-24 07:32:00,49.7,41.7,30.25,SE,129,5.0,7.0,74,0.00,,,0.00,Wunderground v.1.15,2013-05-24 12:32:00,
2013-05-24 07:34:00,49.7,41.7,30.25,ESE,118,5.0,7.0,74,0.00,,,0.00,Wunderground v.1.15,2013-05-24 12:34:00,
2013-05-24 07:36:00,49.8,41.8,30.25,SE,136,5.0,7.0,74,0.00,,,0.00,Wunderground v.1.15,2013-05-24 12:36:00,
2013-05-24 07:38:00,49.9,42.6,30.25,SE,136,6.0,7.0,76,0.00,,,0.00,Wunderground v.1.15,2013-05-24 12:38:00,
2013-05-24 07:40:00,50.1,42.5,30.25,SSE,148,6.0,6.0,75,0.00,,,0.00,Wunderground v.1.15,2013-05-24 12:40:00,
2013-05-24 07:44:00,50.1,41.4,30.25,SE,132,6.0,7.0,72,0.00,,,0.00,Wunderground v.1.15,2013-05-24 12:44:00,
2013-05-24 07:48:00,50.3,42.3,30.25,ESE,122,6.0,7.0,74,0.00,,,0.00,Wunderground v.1.15,2013-05-24 12:48:00,
2013-05-24 07:51:00,50.4,42.1,30.25,SE,127,6.0,7.0,73,0.00,,,0.00,Wunderground v.1.15,2013-05-24 12:51:00,
2013-05-24 07:53:00,50.4,42.1,30.25,SE,133,6.0,7.0,73,0.00,,,0.00,Wunderground v.1.15,2013-05-24 12:53:00,
2013-05-24 07:55:00,50.4,41.7,30.25,SE,134,6.0,7.0,72,0.00,,,0.00,Wunderground v.1.15,2013-05-24 12:55:00,
2013-05-24 07:58:00,50.5,42.2,30.25,SE,134,6.0,7.0,73,0.00,,,0.00,Wunderground v.1.15,2013-05-24 12:58:00,
2013-05-24 08:00:00,50.6,42.3,30.25,SE,134,6.0,6.0,73,0.00,,,0.00,Wunderground v.1.15,2013-05-24 13:00:00,
2013-05-24 08:02:00,50.7,41.6,30.25,SE,136,6.0,6.0,71,0.00,,,0.00,Wunderground v.1.15,2013-05-24 13:02:00,
2013-05-24 08:04:00,50.9,42.6,30.25,ESE,117,6.0,6.0,73,0.00,,,0.00,Wunderground v.1.15,2013-05-24 13:04:00,
2013-05-24 08:06:00,51.0,43.0,30.25,SE,132,6.0,6.0,74,0.00,,,0.00,Wunderground v.1.15,2013-05-24 13:06:00,
2013-05-24 08:08:00,51.2,42.5,30.25,SE,129,5.0,6.0,72,0.00,,,0.00,Wunderground v.1.15,2013-05-24 13:08:00,
2013-05-24 08:10:00,51.4,43.0,30.25,SE,133,5.0,6.0,73,0.00,,,0.00,Wunderground v.1.15,2013-05-24 13:10:00,
2013-05-24 08:12:00,51.6,43.2,30.25,SE,135,5.0,6.0,73,0.00,,,0.00,Wunderground v.1.15,2013-05-24 13:12:00,
2013-05-24 08:13:00,51.7,44.0,30.25,SE,138,5.0,6.0,75,0.00,,,0.00,Wunderground v.1.15,2013-05-24 13:13:00,
2013-05-24 08:15:00,51.9,43.5,30.25,SE,131,5.0,6.0,73,0.00,,,0.00,Wunderground v.1.15,2013-05-24 13:15:00,
2013-05-24 08:18:00,52.0,42.5,30.25,SSE,156,6.0,6.0,70,0.00,,,0.00,Wunderground v.1.15,2013-05-24 13:18:00,
2013-05-24 08:20:00,52.2,44.2,30.24,SSE,150,6.0,7.0,74,0.00,,,0.00,Wunderground v.1.15,2013-05-24 13:20:00,
2013-05-24 08:26:00,52.4,43.3,30.24,SE,135,7.0,8.0,71,0.00,,,0.00,Wunderground v.1.15,2013-05-24 13:26:00,
2013-05-24 08:28:00,52.5,43.4,30.24,SE,125,7.0,9.0,71,0.00,,,0.00,Wunderground v.1.15,2013-05-24 13:28:00,
2013-05-24 08:32:00,52.8,43.7,30.25,ESE,123,7.0,7.0,71,0.00,,,0.00,Wunderground v.1.15,2013-05-24 13:32:00,
2013-05-24 08:34:00,52.9,44.1,30.25,SE,129,7.0,7.0,72,0.00,,,0.00,Wunderground v.1.15,2013-05-24 13:34:00,
2013-05-24 08:36:00,53.0,42.7,30.24,SE,125,7.0,8.0,68,0.00,,,0.00,Wunderground v.1.15,2013-05-24 13:36:00,
2013-05-24 08:38:00,53.1,43.6,30.25,SSE,159,7.0,8.0,70,0.00,,,0.00,Wunderground v.1.15,2013-05-24 13:38:00,
2013-05-24 08:42:00,53.4,45.0,30.25,SE,134,7.0,7.0,73,0.00,,,0.00,Wunderground v.1.15,2013-05-24 13:42:00,
2013-05-24 08:44:00,53.6,44.0,30.25,SE,125,7.0,7.0,70,0.00,,,0.00,Wunderground v.1.15,2013-05-24 13:44:00,
2013-05-24 08:46:00,53.7,44.9,30.25,SE,129,6.0,8.0,72,0.00,,,0.00,Wunderground v.1.15,2013-05-24 13:46:00,
2013-05-24 08:50:00,54.0,44.4,30.25,SE,132,7.0,7.0,70,0.00,,,0.00,Wunderground v.1.15,2013-05-24 13:50:00,
2013-05-24 08:52:00,54.2,45.4,30.25,SE,145,7.0,7.0,72,0.00,,,0.00,Wunderground v.1.15,2013-05-24 13:52:00,
2013-05-24 08:56:00,54.3,44.7,30.25,SE,134,7.0,9.0,70,0.00,,,0.00,Wunderground v.1.15,2013-05-24 13:56:00,
2013-05-24 08:58:00,54.6,44.6,30.25,SE,135,7.0,9.0,69,0.00,,,0.00,Wunderground v.1.15,2013-05-24 13:58:00,
2013-05-24 09:01:00,55.0,45.8,30.25,SE,137,8.0,8.0,71,0.00,,,0.00,Wunderground v.1.15,2013-05-24 14:01:00,
2013-05-24 09:06:00,55.3,44.9,30.25,SE,139,8.0,11.0,68,0.00,,,0.00,Wunderground v.1.15,2013-05-24 14:06:00,
2013-05-24 09:08:00,55.5,45.1,30.25,SSE,153,8.0,11.0,68,0.00,,,0.00,Wunderground v.1.15,2013-05-24 14:08:00,
2013-05-24 09:12:00,55.7,44.9,30.25,SE,143,9.0,10.0,67,0.00,,,0.00,Wunderground v.1.15,2013-05-24 14:12:00,
2013-05-24 09:14:00,55.9,46.6,30.25,SE,139,9.0,10.0,71,0.00,,,0.00,Wunderground v.1.15,2013-05-24 14:14:00,
2013-05-24 09:18:00,56.2,45.4,30.25,SE,141,8.0,10.0,67,0.00,,,0.00,Wunderground v.1.15,2013-05-24 14:18:00,
2013-05-24 09:22:00,56.6,45.8,30.25,SSE,148,8.0,10.0,67,0.00,,,0.00,Wunderground v.1.15,2013-05-24 14:22:00,
2013-05-24 09:24:00,56.7,45.5,30.25,SE,142,8.0,10.0,66,0.00,,,0.00,Wunderground v.1.15,2013-05-24 14:24:00,
2013-05-24 09:26:00,57.0,46.1,30.25,SSE,153,8.0,10.0,67,0.00,,,0.00,Wunderground v.1.15,2013-05-24 14:26:00,
2013-05-24 09:27:00,57.2,46.3,30.25,SE,140,8.0,10.0,67,0.00,,,0.00,Wunderground v.1.15,2013-05-24 14:27:00,
2013-05-24 09:32:00,57.6,46.7,30.24,SSE,149,8.0,8.0,67,0.00,,,0.00,Wunderground v.1.15,2013-05-24 14:32:00,
2013-05-24 09:34:00,57.7,45.2,30.24,ESE,122,8.0,12.0,63,0.00,,,0.00,Wunderground v.1.15,2013-05-24 14:34:00,
2013-05-24 09:36:00,57.8,45.3,30.24,SE,143,9.0,12.0,63,0.00,,,0.00,Wunderground v.1.15,2013-05-24 14:36:00,
2013-05-24 09:38:00,57.8,45.3,30.24,SE,134,9.0,12.0,63,0.00,,,0.00,Wunderground v.1.15,2013-05-24 14:38:00,
2013-05-24 09:40:00,57.9,45.8,30.24,ESE,120,10.0,10.0,64,0.00,,,0.00,Wunderground v.1.15,2013-05-24 14:40:00,
2013-05-24 09:44:00,58.2,45.2,30.24,SE,135,10.0,10.0,62,0.00,,,0.00,Wunderground v.1.15,2013-05-24 14:44:00,
2013-05-24 09:48:00,58.5,45.9,30.25,SE,135,10.0,10.0,63,0.00,,,0.00,Wunderground v.1.15,2013-05-24 14:48:00,
2013-05-24 09:52:00,58.6,46.0,30.25,SE,146,10.0,10.0,63,0.00,,,0.00,Wunderground v.1.15,2013-05-24 14:52:00,
2013-05-24 09:58:00,59.0,45.6,30.24,SE,134,9.0,10.0,61,0.00,,,0.00,Wunderground v.1.15,2013-05-24 14:58:00,
2013-05-24 10:00:00,59.1,46.5,30.24,SSE,147,9.0,14.0,63,0.00,,,0.00,Wunderground v.1.15,2013-05-24 15:00:00,
2013-05-24 10:02:00,59.2,46.2,30.24,SSE,149,9.0,14.0,62,0.00,,,0.00,Wunderground v.1.15,2013-05-24 15:02:00,
2013-05-24 10:04:00,59.3,47.1,30.24,SE,128,9.0,14.0,64,0.00,,,0.00,Wunderground v.1.15,2013-05-24 15:04:00,
2013-05-24 10:08:00,59.5,46.9,30.24,SE,134,9.0,14.0,63,0.00,,,0.00,Wunderground v.1.15,2013-05-24 15:08:00,
2013-05-24 10:11:00,59.6,45.7,30.24,ESE,118,9.0,13.0,60,0.00,,,0.00,Wunderground v.1.15,2013-05-24 15:11:00,
2013-05-24 10:14:00,59.6,46.6,30.24,SE,132,9.0,14.0,62,0.00,,,0.00,Wunderground v.1.15,2013-05-24 15:14:00,
2013-05-24 10:15:00,59.7,46.2,30.23,SE,131,10.0,14.0,61,0.00,,,0.00,Wunderground v.1.15,2013-05-24 15:15:00,
2013-05-24 10:17:00,59.9,46.8,30.23,SE,132,10.0,14.0,62,0.00,,,0.00,Wunderground v.1.15,2013-05-24 15:17:00,
2013-05-24 10:24:00,60.3,46.8,30.23,SE,127,10.0,12.0,61,0.00,,,0.00,Wunderground v.1.15,2013-05-24 15:24:00,
2013-05-24 10:28:00,60.5,47.0,30.23,SE,127,10.0,13.0,61,0.00,,,0.00,Wunderground v.1.15,2013-05-24 15:28:00,
2013-05-24 10:30:00,60.6,46.2,30.23,SE,129,9.0,9.0,59,0.00,,,0.00,Wunderground v.1.15,2013-05-24 15:30:00,
2013-05-24 10:32:00,60.8,46.8,30.22,SE,134,9.0,12.0,60,0.00,,,0.00,Wunderground v.1.15,2013-05-24 15:32:00,
2013-05-24 10:35:00,60.9,46.0,30.22,SE,141,9.0,12.0,58,0.00,,,0.00,Wunderground v.1.15,2013-05-24 15:35:00,
2013-05-24 10:37:00,61.0,47.0,30.22,SE,137,10.0,12.0,60,0.00,,,0.00,Wunderground v.1.15,2013-05-24 15:37:00,
2013-05-24 10:42:00,61.4,46.9,30.22,SSE,158,10.0,10.0,59,0.00,,,0.00,Wunderground v.1.15,2013-05-24 15:42:00,
2013-05-24 10:44:00,61.6,47.1,30.22,SSE,150,10.0,10.0,59,0.00,,,0.00,Wunderground v.1.15,2013-05-24 15:44:00,
2013-05-24 10:46:00,61.6,47.1,30.22,SE,125,10.0,10.0,59,0.00,,,0.00,Wunderground v.1.15,2013-05-24 15:46:00,
2013-05-24 10:52:00,62.1,47.1,30.22,SE,131,10.0,10.0,58,0.00,,,0.00,Wunderground v.1.15,2013-05-24 15:52:00,
2013-05-24 10:54:00,62.1,45.7,30.22,SSE,148,9.0,12.0,55,0.00,,,0.00,Wunderground v.1.15,2013-05-24 15:54:00,
2013-05-24 10:56:00,62.1,47.6,30.22,SE,135,9.0,12.0,59,0.00,,,0.00,Wunderground v.1.15,2013-05-24 15:56:00,
2013-05-24 10:59:00,62.4,47.9,30.22,SE,136,9.0,11.0,59,0.00,,,0.00,Wunderground v.1.15,2013-05-24 15:59:00,
2013-05-24 11:06:00,62.5,47.5,30.21,SSE,147,10.0,14.0,58,0.00,,,0.00,Wunderground v.1.15,2013-05-24 16:06:00,
2013-05-24 11:08:00,62.6,46.2,30.21,SE,139,10.0,14.0,55,0.00,,,0.00,Wunderground v.1.15,2013-05-24 16:08:00,
2013-05-24 11:10:00,62.6,46.7,30.21,SE,145,10.0,10.0,56,0.00,,,0.00,Wunderground v.1.15,2013-05-24 16:10:00,
2013-05-24 11:14:00,62.6,47.6,30.21,ESE,118,10.0,13.0,58,0.00,,,0.00,Wunderground v.1.15,2013-05-24 16:14:00,
2013-05-24 11:16:00,62.8,46.4,30.21,SE,126,11.0,13.0,55,0.00,,,0.00,Wunderground v.1.15,2013-05-24 16:16:00,
2013-05-24 11:17:00,62.8,45.9,30.21,SSE,148,10.0,13.0,54,0.00,,,0.00,Wunderground v.1.15,2013-05-24 16:17:00,
2013-05-24 11:19:00,63.0,47.5,30.21,SE,128,10.0,10.0,57,0.00,,,0.00,Wunderground v.1.15,2013-05-24 16:19:00,
2013-05-24 11:22:00,63.1,47.1,30.21,SSE,152,9.0,10.0,56,0.00,,,0.00,Wunderground v.1.15,2013-05-24 16:22:00,
2013-05-24 11:26:00,63.2,46.3,30.20,SE,134,10.0,10.0,54,0.00,,,0.00,Wunderground v.1.15,2013-05-24 16:26:00,
2013-05-24 11:28:00,63.2,47.2,30.20,SE,129,10.0,16.0,56,0.00,,,0.00,Wunderground v.1.15,2013-05-24 16:28:00,
2013-05-24 11:30:00,63.3,47.3,30.20,SE,135,10.0,10.0,56,0.00,,,0.00,Wunderground v.1.15,2013-05-24 16:30:00,
2013-05-24 11:36:00,63.7,48.2,30.20,ESE,117,10.0,10.0,57,0.00,,,0.00,Wunderground v.1.15,2013-05-24 16:36:00,
2013-05-24 11:38:00,63.6,46.1,30.19,SE,136,9.0,10.0,53,0.00,,,0.00,Wunderground v.1.15,2013-05-24 16:38:00,
2013-05-24 11:42:00,63.8,47.8,30.19,SE,137,10.0,14.0,56,0.00,,,0.00,Wunderground v.1.15,2013-05-24 16:42:00,
2013-05-24 11:44:00,63.9,47.9,30.19,SE,131,10.0,14.0,56,0.00,,,0.00,Wunderground v.1.15,2013-05-24 16:44:00,
2013-05-24 11:46:00,64.0,48.5,30.19,SE,135,10.0,14.0,57,0.00,,,0.00,Wunderground v.1.15,2013-05-24 16:46:00,
2013-05-24 11:49:00,64.2,46.7,30.19,SE,126,9.0,11.0,53,0.00,,,0.00,Wunderground v.1.15,2013-05-24 16:49:00,
2013-05-24 11:54:00,64.3,47.3,30.19,SSE,158,9.0,12.0,54,0.00,,,0.00,Wunderground v.1.15,2013-05-24 16:54:00,
2013-05-24 11:56:00,64.3,47.8,30.19,SE,145,10.0,12.0,55,0.00,,,0.00,Wunderground v.1.15,2013-05-24 16:56:00,
2013-05-24 12:02:00,64.2,46.7,30.19,SE,137,11.0,11.0,53,0.00,,,0.00,Wunderground v.1.15,2013-05-24 17:02:00,
2013-05-24 12:04:00,64.1,48.1,30.19,SE,134,10.0,11.0,56,0.00,,,0.00,Wunderground v.1.15,2013-05-24 17:04:00,
2013-05-24 12:06:00,64.0,47.5,30.19,SSE,155,10.0,11.0,55,0.00,,,0.00,Wunderground v.1.15,2013-05-24 17:06:00,
2013-05-24 12:10:00,63.9,48.4,30.19,SE,136,10.0,10.0,57,0.00,,,0.00,Wunderground v.1.15,2013-05-24 17:10:00,
2013-05-24 12:12:00,64.1,47.6,30.19,SE,126,9.0,10.0,55,0.00,,,0.00,Wunderground v.1.15,2013-05-24 17:12:00,
2013-05-24 12:15:00,64.8,49.7,30.19,SSE,150,8.0,10.0,58,0.00,,,0.00,Wunderground v.1.15,2013-05-24 17:15:00,
2013-05-24 12:18:00,65.0,47.4,30.18,SE,139,8.0,10.0,53,0.00,,,0.00,Wunderground v.1.15,2013-05-24 17:18:00,
2013-05-24 12:20:00,65.1,46.5,30.19,SE,137,8.0,8.0,51,0.00,,,0.00,Wunderground v.1.15,2013-05-24 17:20:00,
2013-05-24 12:24:00,65.4,48.3,30.18,SE,135,8.0,8.0,54,0.00,,,0.00,Wunderground v.1.15,2013-05-24 17:24:00,
2013-05-24 12:26:00,65.5,48.4,30.18,SE,131,9.0,9.0,54,0.00,,,0.00,Wunderground v.1.15,2013-05-24 17:26:00,
2013-05-24 12:30:00,65.5,49.4,30.18,SSE,150,8.0,15.0,56,0.00,,,0.00,Wunderground v.1.15,2013-05-24 17:30:00,
2013-05-24 12:34:00,65.7,48.1,30.18,SE,135,9.0,15.0,53,0.00,,,0.00,Wunderground v.1.15,2013-05-24 17:34:00,
2013-05-24 12:35:00,65.8,47.2,30.17,South,185,9.0,15.0,51,0.00,,,0.00,Wunderground v.1.15,2013-05-24 17:35:00,
2013-05-24 12:37:00,65.9,47.8,30.18,SE,135,10.0,15.0,52,0.00,,,0.00,Wunderground v.1.15,2013-05-24 17:37:00,
2013-05-24 12:40:00,66.1,48.5,30.17,SSE,156,10.0,10.0,53,0.00,,,0.00,Wunderground v.1.15,2013-05-24 17:40:00,
2013-05-24 12:44:00,66.4,47.7,30.17,ESE,111,10.0,10.0,51,0.00,,,0.00,Wunderground v.1.15,2013-05-24 17:44:00,
2013-05-24 12:46:00,66.3,46.6,30.17,SE,126,9.0,10.0,49,0.00,,,0.00,Wunderground v.1.15,2013-05-24 17:46:00,
2013-05-24 12:48:00,66.4,47.7,30.17,SE,131,10.0,12.0,51,0.00,,,0.00,Wunderground v.1.15,2013-05-24 17:48:00,
2013-05-24 12:54:00,66.5,47.8,30.16,SE,139,11.0,14.0,51,0.00,,,0.00,Wunderground v.1.15,2013-05-24 17:54:00,
2013-05-24 12:58:00,66.8,48.6,30.16,SSE,148,11.0,14.0,52,0.00,,,0.00,Wunderground v.1.15,2013-05-24 17:58:00,
2013-05-24 12:59:00,67.0,48.3,30.16,SE,131,9.0,11.0,51,0.00,,,0.00,Wunderground v.1.15,2013-05-24 17:59:00,
2013-05-24 13:02:00,67.1,48.4,30.16,SE,143,10.0,17.0,51,0.00,,,0.00,Wunderground v.1.15,2013-05-24 18:02:00,
2013-05-24 13:06:00,67.2,47.4,30.16,SSE,156,9.0,17.0,49,0.00,,,0.00,Wunderground v.1.15,2013-05-24 18:06:00,
2013-05-24 13:08:00,67.3,48.0,30.16,SE,128,10.0,17.0,50,0.00,,,0.00,Wunderground v.1.15,2013-05-24 18:08:00,
2013-05-24 13:10:00,67.3,46.4,30.16,SSE,162,10.0,17.0,47,0.00,,,0.00,Wunderground v.1.15,2013-05-24 18:10:00,
2013-05-24 13:12:00,67.4,48.1,30.15,SE,136,10.0,17.0,50,0.00,,,0.00,Wunderground v.1.15,2013-05-24 18:12:00,
2013-05-24 13:14:00,67.3,47.5,30.15,SE,125,10.0,17.0,49,0.00,,,0.00,Wunderground v.1.15,2013-05-24 18:14:00,
2013-05-24 13:16:00,67.3,48.0,30.15,SE,141,11.0,17.0,50,0.00,,,0.00,Wunderground v.1.15,2013-05-24 18:16:00,
2013-05-24 13:19:00,67.2,48.5,30.15,SE,135,10.0,10.0,51,0.00,,,0.00,Wunderground v.1.15,2013-05-24 18:19:00,
2013-05-24 13:22:00,67.5,48.2,30.14,SE,134,10.0,13.0,50,0.00,,,0.00,Wunderground v.1.15,2013-05-24 18:22:00,
2013-05-24 13:24:00,67.7,47.3,30.15,SE,131,10.0,17.0,48,0.00,,,0.00,Wunderground v.1.15,2013-05-24 18:24:00,
2013-05-24 13:28:00,68.1,47.1,30.14,SSE,152,10.0,17.0,47,0.00,,,0.00,Wunderground v.1.15,2013-05-24 18:28:00,
2013-05-24 13:30:00,68.2,47.2,30.14,SE,131,10.0,17.0,47,0.00,,,0.00,Wunderground v.1.15,2013-05-24 18:30:00,
2013-05-24 13:34:00,68.0,47.0,30.14,SE,145,11.0,17.0,47,0.00,,,0.00,Wunderground v.1.15,2013-05-24 18:34:00,
2013-05-24 13:38:00,68.1,47.7,30.14,SSE,153,12.0,17.0,48,0.00,,,0.00,Wunderground v.1.15,2013-05-24 18:38:00,
2013-05-24 13:40:00,68.2,47.2,30.14,SE,139,12.0,17.0,47,0.00,,,0.00,Wunderground v.1.15,2013-05-24 18:40:00,
2013-05-24 13:44:00,68.3,48.9,30.14,SE,135,11.0,17.0,50,0.00,,,0.00,Wunderground v.1.15,2013-05-24 18:44:00,
2013-05-24 13:47:00,68.8,49.4,30.14,SE,141,10.0,17.0,50,0.00,,,0.00,Wunderground v.1.15,2013-05-24 18:47:00,
2013-05-24 13:50:00,68.8,47.7,30.14,SE,139,11.0,17.0,47,0.00,,,0.00,Wunderground v.1.15,2013-05-24 18:50:00,
2013-05-24 13:54:00,68.7,47.1,30.13,SE,126,12.0,17.0,46,0.00,,,0.00,Wunderground v.1.15,2013-05-24 18:54:00,
2013-05-24 13:56:00,68.6,48.1,30.13,SE,143,13.0,17.0,48,0.00,,,0.00,Wunderground v.1.15,2013-05-24 18:56:00,
2013-05-24 14:00:00,68.7,48.2,30.13,SSE,168,13.0,13.0,48,0.00,,,0.00,Wunderground v.1.15,2013-05-24 19:00:00,
2013-05-24 14:02:00,68.6,47.6,30.13,SE,145,12.0,17.0,47,0.00,,,0.00,Wunderground v.1.15,2013-05-24 19:02:00,
2013-05-24 14:08:00,68.4,49.0,30.13,SSE,162,11.0,17.0,50,0.00,,,0.00,Wunderground v.1.15,2013-05-24 19:08:00,
2013-05-24 14:10:00,68.4,48.5,30.12,SE,134,11.0,17.0,49,0.00,,,0.00,Wunderground v.1.15,2013-05-24 19:10:00,
2013-05-24 14:13:00,68.9,47.8,30.13,SE,145,12.0,17.0,47,0.00,,,0.00,Wunderground v.1.15,2013-05-24 19:13:00,
2013-05-24 14:16:00,69.1,48.6,30.13,SE,134,12.0,17.0,48,0.00,,,0.00,Wunderground v.1.15,2013-05-24 19:16:00,
2013-05-24 14:18:00,69.4,48.3,30.13,SE,143,12.0,17.0,47,0.00,,,0.00,Wunderground v.1.15,2013-05-24 19:18:00,
2013-05-24 14:20:00,69.6,48.5,30.13,SE,139,12.0,18.0,47,0.00,,,0.00,Wunderground v.1.15,2013-05-24 19:20:00,
2013-05-24 14:22:00,69.6,47.3,30.12,SSE,163,12.0,18.0,45,0.00,,,0.00,Wunderground v.1.15,2013-05-24 19:22:00,
2013-05-24 14:26:00,69.5,48.4,30.12,SE,145,13.0,18.0,47,0.00,,,0.00,Wunderground v.1.15,2013-05-24 19:26:00,
2013-05-24 14:29:00,69.4,48.9,30.12,SE,143,13.0,13.0,48,0.00,,,0.00,Wunderground v.1.15,2013-05-24 19:29:00,
2013-05-24 14:32:00,69.7,48.0,30.12,SSE,149,11.0,17.0,46,0.00,,,0.00,Wunderground v.1.15,2013-05-24 19:32:00,
2013-05-24 14:34:00,69.7,48.6,30.12,SSE,159,11.0,17.0,47,0.00,,,0.00,Wunderground v.1.15,2013-05-24 19:34:00,
2013-05-24 14:38:00,69.5,47.8,30.11,SE,138,11.0,17.0,46,0.00,,,0.00,Wunderground v.1.15,2013-05-24 19:38:00,
2013-05-24 14:40:00,69.4,48.3,30.11,ESE,122,12.0,17.0,47,0.00,,,0.00,Wunderground v.1.15,2013-05-24 19:40:00,
2013-05-24 14:44:00,69.2,48.1,30.11,SE,138,12.0,17.0,47,0.00,,,0.00,Wunderground v.1.15,2013-05-24 19:44:00,
2013-05-24 14:46:00,69.2,48.1,30.11,SE,139,12.0,17.0,47,0.00,,,0.00,Wunderground v.1.15,2013-05-24 19:46:00,
2013-05-24 14:47:00,69.4,48.9,30.10,SSE,152,12.0,17.0,48,0.00,,,0.00,Wunderground v.1.15,2013-05-24 19:47:00,
2013-05-24 14:49:00,69.8,48.7,30.11,SSE,152,11.0,11.0,47,0.00,,,0.00,Wunderground v.1.15,2013-05-24 19:49:00,
2013-05-24 14:52:00,70.2,49.0,30.11,SSE,153,11.0,17.0,47,0.00,,,0.00,Wunderground v.1.15,2013-05-24 19:52:00,
2013-05-24 14:54:00,70.3,49.1,30.11,South,175,10.0,17.0,47,0.00,,,0.00,Wunderground v.1.15,2013-05-24 19:54:00,
2013-05-24 15:00:00,70.1,49.5,30.10,SSE,160,11.0,17.0,48,0.00,,,0.00,Wunderground v.1.15,2013-05-24 20:00:00,
2013-05-24 15:02:00,70.4,50.3,30.10,SSW,198,10.0,17.0,49,0.00,,,0.00,Wunderground v.1.15,2013-05-24 20:02:00,
2013-05-24 15:04:00,70.7,48.3,30.10,SE,145,10.0,17.0,45,0.00,,,0.00,Wunderground v.1.15,2013-05-24 20:04:00,
2013-05-24 15:08:00,71.0,48.0,30.10,SE,145,10.0,17.0,44,0.00,,,0.00,Wunderground v.1.15,2013-05-24 20:08:00,
2013-05-24 15:11:00,71.0,49.2,30.10,SE,135,10.0,15.0,46,0.00,,,0.00,Wunderground v.1.15,2013-05-24 20:11:00,
2013-05-24 15:14:00,71.0,49.7,30.10,SSE,162,12.0,17.0,47,0.00,,,0.00,Wunderground v.1.15,2013-05-24 20:14:00,
2013-05-24 15:16:00,71.1,49.3,30.10,SSE,148,12.0,17.0,46,0.00,,,0.00,Wunderground v.1.15,2013-05-24 20:16:00,
2013-05-24 15:20:00,71.3,49.4,30.10,SE,135,13.0,17.0,46,0.00,,,0.00,Wunderground v.1.15,2013-05-24 20:20:00,
2013-05-24 15:22:00,71.2,48.8,30.10,SSE,152,12.0,17.0,45,0.00,,,0.00,Wunderground v.1.15,2013-05-24 20:22:00,
2013-05-24 15:26:00,70.9,49.7,30.10,SE,139,10.0,17.0,47,0.00,,,0.00,Wunderground v.1.15,2013-05-24 20:26:00,
2013-05-24 15:28:00,70.8,49.0,30.10,SSE,158,10.0,17.0,46,0.00,,,0.00,Wunderground v.1.15,2013-05-24 20:28:00,
2013-05-24 15:30:00,70.7,48.9,30.09,SE,141,9.0,17.0,46,0.00,,,0.00,Wunderground v.1.15,2013-05-24 20:30:00,
2013-05-24 15:34:00,70.9,50.2,30.09,SE,145,10.0,17.0,48,0.00,,,0.00,Wunderground v.1.15,2013-05-24 20:34:00,
2013-05-24 15:36:00,71.0,49.2,30.09,SSE,158,11.0,17.0,46,0.00,,,0.00,Wunderground v.1.15,2013-05-24 20:36:00,
2013-05-24 15:40:00,70.9,50.2,30.09,SE,143,10.0,17.0,48,0.00,,,0.00,Wunderground v.1.15,2013-05-24 20:40:00,
2013-05-24 15:42:00,70.8,49.6,30.08,SSE,152,10.0,17.0,47,0.00,,,0.00,Wunderground v.1.15,2013-05-24 20:42:00,
2013-05-24 15:46:00,70.6,49.4,30.08,SSE,158,9.0,17.0,47,0.00,,,0.00,Wunderground v.1.15,2013-05-24 20:46:00,
2013-05-24 15:47:00,70.5,48.1,30.08,SSE,168,9.0,17.0,45,0.00,,,0.00,Wunderground v.1.15,2013-05-24 20:47:00,
2013-05-24 15:52:00,70.9,49.1,30.08,ESE,111,9.0,11.0,46,0.00,,,0.00,Wunderground v.1.15,2013-05-24 20:52:00,
2013-05-24 15:54:00,70.9,49.7,30.08,SE,126,10.0,16.0,47,0.00,,,0.00,Wunderground v.1.15,2013-05-24 20:54:00,
2013-05-24 15:56:00,71.0,50.3,30.07,SSE,148,10.0,17.0,48,0.00,,,0.00,Wunderground v.1.15,2013-05-24 20:56:00,
2013-05-24 15:58:00,71.1,49.3,30.06,South,173,10.0,17.0,46,0.00,,,0.00,Wunderground v.1.15,2013-05-24 20:58:00,
2013-05-24 16:00:00,71.4,50.1,30.07,SSE,148,11.0,17.0,47,0.00,,,0.00,Wunderground v.1.15,2013-05-24 21:00:00,
2013-05-24 16:02:00,71.5,50.2,30.07,SSE,149,11.0,17.0,47,0.00,,,0.00,Wunderground v.1.15,2013-05-24 21:02:00,
2013-05-24 16:04:00,71.7,49.8,30.08,SSE,160,10.0,17.0,46,0.00,,,0.00,Wunderground v.1.15,2013-05-24 21:04:00,
2013-05-24 16:08:00,71.6,50.3,30.07,SSE,156,10.0,17.0,47,0.00,,,0.00,Wunderground v.1.15,2013-05-24 21:08:00,
2013-05-24 16:11:00,71.5,50.8,30.07,SSE,153,11.0,17.0,48,0.00,,,0.00,Wunderground v.1.15,2013-05-24 21:11:00,
2013-05-24 16:14:00,71.7,52.1,30.07,South,188,11.0,17.0,50,0.00,,,0.00,Wunderground v.1.15,2013-05-24 21:14:00,
2013-05-24 16:16:00,72.0,50.7,30.07,SSE,149,10.0,17.0,47,0.00,,,0.00,Wunderground v.1.15,2013-05-24 21:16:00,
2013-05-24 16:18:00,72.0,50.1,30.07,SE,145,10.0,17.0,46,0.00,,,0.00,Wunderground v.1.15,2013-05-24 21:18:00,
2013-05-24 16:20:00,71.9,49.4,30.07,SSW,194,8.0,17.0,45,0.00,,,0.00,Wunderground v.1.15,2013-05-24 21:20:00,
2013-05-24 16:24:00,71.7,49.8,30.07,SSE,153,8.0,17.0,46,0.00,,,0.00,Wunderground v.1.15,2013-05-24 21:24:00,
2013-05-24 16:26:00,71.5,50.2,30.07,SSE,150,8.0,17.0,47,0.00,,,0.00,Wunderground v.1.15,2013-05-24 21:26:00,
2013-05-24 16:28:00,71.3,50.6,30.07,South,180,9.0,17.0,48,0.00,,,0.00,Wunderground v.1.15,2013-05-24 21:28:00,
2013-05-24 16:31:00,71.0,49.2,30.06,SSE,165,10.0,17.0,46,0.00,,,0.00,Wunderground v.1.15,2013-05-24 21:31:00,
2013-05-24 16:36:00,70.7,49.5,30.06,SSE,162,9.0,17.0,47,0.00,,,0.00,Wunderground v.1.15,2013-05-24 21:36:00,
2013-05-24 16:38:00,70.6,50.0,30.07,SSW,211,8.0,17.0,48,0.00,,,0.00,Wunderground v.1.15,2013-05-24 21:38:00,
2013-05-24 16:40:00,70.5,49.9,30.06,SSE,156,8.0,17.0,48,0.00,,,0.00,Wunderground v.1.15,2013-05-24 21:40:00,
2013-05-24 16:44:00,70.2,48.4,30.06,SE,131,10.0,17.0,46,0.00,,,0.00,Wunderground v.1.15,2013-05-24 21:44:00,
2013-05-24 16:46:00,70.2,49.0,30.05,SSE,154,10.0,17.0,47,0.00,,,0.00,Wunderground v.1.15,2013-05-24 21:46:00,
2013-05-24 16:48:00,70.2,49.6,30.05,SSE,168,10.0,17.0,48,0.00,,,0.00,Wunderground v.1.15,2013-05-24 21:48:00,
2013-05-24 16:51:00,70.2,49.6,30.05,SSE,150,11.0,17.0,48,0.00,,,0.00,Wunderground v.1.15,2013-05-24 21:51:00,
2013-05-24 16:53:00,70.1,49.5,30.04,SE,141,11.0,17.0,48,0.00,,,0.00,Wunderground v.1.15,2013-05-24 21:53:00,
2013-05-24 16:56:00,70.0,50.5,30.04,SSE,149,11.0,17.0,50,0.00,,,0.00,Wunderground v.1.15,2013-05-24 21:56:00,
2013-05-24 17:00:00,69.9,50.4,30.04,SSE,151,11.0,17.0,50,0.00,,,0.00,Wunderground v.1.15,2013-05-24 22:00:00,
2013-05-24 17:02:00,69.8,49.8,30.04,SE,136,11.0,17.0,49,0.00,,,0.00,Wunderground v.1.15,2013-05-24 22:02:00,
2013-05-24 17:04:00,69.7,50.2,30.04,SE,145,11.0,17.0,50,0.00,,,0.00,Wunderground v.1.15,2013-05-24 22:04:00,
2013-05-24 17:08:00,69.6,50.1,30.05,SSE,148,12.0,17.0,50,0.00,,,0.00,Wunderground v.1.15,2013-05-24 22:08:00,
2013-05-24 17:10:00,69.5,50.0,30.05,SE,136,12.0,12.0,50,0.00,,,0.00,Wunderground v.1.15,2013-05-24 22:10:00,
2013-05-24 17:13:00,69.4,50.5,30.05,SE,139,12.0,17.0,51,0.00,,,0.00,Wunderground v.1.15,2013-05-24 22:13:00,
2013-05-24 17:20:00,69.2,49.8,30.05,SSE,155,9.0,17.0,50,0.00,,,0.00,Wunderground v.1.15,2013-05-24 22:20:00,
2013-05-24 17:22:00,69.1,49.7,30.05,SSE,148,9.0,17.0,50,0.00,,,0.00,Wunderground v.1.15,2013-05-24 22:22:00,
2013-05-24 17:24:00,69.1,49.7,30.06,SE,134,9.0,17.0,50,0.00,,,0.00,Wunderground v.1.15,2013-05-24 22:24:00,
2013-05-24 17:26:00,69.0,49.6,30.07,SE,135,9.0,17.0,50,0.00,,,0.00,Wunderground v.1.15,2013-05-24 22:26:00,
2013-05-24 17:30:00,68.9,49.5,30.08,SE,135,8.0,8.0,50,0.00,,,0.00,Wunderground v.1.15,2013-05-24 22:30:00,
2013-05-24 17:32:00,68.9,49.5,30.10,WSW,245,6.0,17.0,50,0.00,,,0.00,Wunderground v.1.15,2013-05-24 22:32:00,
2013-05-24 17:34:00,68.8,49.4,30.12,SW,224,5.0,17.0,50,0.00,,,0.00,Wunderground v.1.15,2013-05-24 22:34:00,
2013-05-24 17:35:00,68.9,48.9,30.13,WNW,298,4.0,17.0,49,0.00,,,0.00,Wunderground v.1.15,2013-05-24 22:35:00,
2013-05-24 17:40:00,68.7,50.9,30.13,East,79,2.0,17.0,53,0.00,,,0.00,Wunderground v.1.15,2013-05-24 22:40:00,
2013-05-24 17:42:00,68.5,50.2,30.13,East,82,2.0,17.0,52,0.00,,,0.01,Wunderground v.1.15,2013-05-24 22:42:00,
2013-05-24 17:44:00,68.3,51.5,30.13,ENE,75,2.0,17.0,55,0.21,,,0.02,Wunderground v.1.15,2013-05-24 22:44:00,
2013-05-24 17:46:00,67.8,53.4,30.13,SSW,208,1.0,17.0,60,0.21,,,0.02,Wunderground v.1.15,2013-05-24 22:46:00,
2013-05-24 17:52:00,66.4,54.3,30.11,SE,139,1.0,17.0,65,0.46,,,0.07,Wunderground v.1.15,2013-05-24 22:52:00,
2013-05-24 17:54:00,65.9,53.8,30.10,WSW,237,2.0,17.0,65,0.31,,,0.08,Wunderground v.1.15,2013-05-24 22:54:00,
2013-05-24 17:57:00,65.2,53.6,30.10,North,10,2.0,17.0,66,0.11,,,0.08,Wunderground v.1.15,2013-05-24 22:57:00,
2013-05-24 18:00:00,64.8,54.4,30.09,NE,41,1.0,17.0,69,0.08,,,0.08,Wunderground v.1.15,2013-05-24 23:00:00,
2013-05-24 18:02:00,64.5,55.3,30.09,SSW,198,1.0,17.0,72,0.08,,,0.09,Wunderground v.1.15,2013-05-24 23:02:00,
2013-05-24 18:06:00,64.0,54.8,30.09,SSE,155,1.0,17.0,72,0.17,,,0.10,Wunderground v.1.15,2013-05-24 23:06:00,
2013-05-24 18:10:00,63.7,54.9,30.08,SE,146,2.0,2.0,73,0.10,,,0.10,Wunderground v.1.15,2013-05-24 23:10:00,
2013-05-24 18:12:00,63.5,55.1,30.08,SE,139,2.0,5.0,74,0.08,,,0.10,Wunderground v.1.15,2013-05-24 23:12:00,
2013-05-24 18:14:00,63.5,55.1,30.08,SE,133,3.0,17.0,74,0.06,,,0.10,Wunderground v.1.15,2013-05-24 23:14:00,
2013-05-24 18:18:00,63.4,54.2,30.07,SE,132,4.0,17.0,72,0.04,,,0.10,Wunderground v.1.15,2013-05-24 23:18:00,
2013-05-24 18:20:00,63.5,54.3,30.07,SE,126,4.0,17.0,72,0.04,,,0.10,Wunderground v.1.15,2013-05-24 23:20:00,
2013-05-24 18:21:00,63.6,53.6,30.07,SE,134,5.0,17.0,70,0.00,,,0.10,Wunderground v.1.15,2013-05-24 23:21:00,
2013-05-24 18:26:00,63.7,54.5,30.07,SE,139,5.0,17.0,72,0.00,,,0.10,Wunderground v.1.15,2013-05-24 23:26:00,
2013-05-24 18:28:00,63.7,54.5,30.07,SE,135,5.0,17.0,72,0.00,,,0.10,Wunderground v.1.15,2013-05-24 23:28:00,
2013-05-24 18:32:00,63.6,54.0,30.07,SE,135,6.0,17.0,71,0.00,,,0.10,Wunderground v.1.15,2013-05-24 23:32:00,
2013-05-24 18:34:00,63.7,53.7,30.07,SE,134,6.0,17.0,70,0.00,,,0.10,Wunderground v.1.15,2013-05-24 23:34:00,
2013-05-24 18:36:00,63.7,53.7,30.07,SE,146,6.0,17.0,70,0.00,,,0.10,Wunderground v.1.15,2013-05-24 23:36:00,
2013-05-24 18:38:00,63.7,54.5,30.07,SE,132,6.0,17.0,72,0.00,,,0.10,Wunderground v.1.15,2013-05-24 23:38:00,
2013-05-24 18:40:00,63.5,54.3,30.06,ESE,113,6.0,17.0,72,0.00,,,0.10,Wunderground v.1.15,2013-05-24 23:40:00,
2013-05-24 18:42:00,63.5,54.7,30.06,ESE,118,6.0,17.0,73,0.00,,,0.10,Wunderground v.1.15,2013-05-24 23:42:00,
2013-05-24 18:43:00,63.4,53.8,30.06,SE,139,6.0,17.0,71,0.00,,,0.10,Wunderground v.1.15,2013-05-24 23:43:00,
2013-05-24 18:45:00,63.4,55.0,30.06,SE,124,5.0,17.0,74,0.00,,,0.10,Wunderground v.1.15,2013-05-24 23:45:00,
2013-05-24 18:48:00,63.4,53.8,30.06,SE,129,5.0,17.0,71,0.00,,,0.10,Wunderground v.1.15,2013-05-24 23:48:00,
2013-05-24 18:50:00,63.5,53.9,30.06,SE,141,5.0,17.0,71,0.00,,,0.10,Wunderground v.1.15,2013-05-24 23:50:00,
2013-05-24 18:52:00,63.6,54.0,30.06,SE,143,5.0,17.0,71,0.00,,,0.10,Wunderground v.1.15,2013-05-24 23:52:00,
2013-05-24 18:54:00,63.6,54.4,30.06,ESE,118,5.0,17.0,72,0.00,,,0.10,Wunderground v.1.15,2013-05-24 23:54:00,
2013-05-24 18:56:00,63.5,54.3,30.06,SSE,168,5.0,17.0,72,0.00,,,0.10,Wunderground v.1.15,2013-05-24 23:56:00,
2013-05-24 18:58:00,63.5,54.3,30.06,SSE,147,5.0,17.0,72,0.00,,,0.10,Wunderground v.1.15,2013-05-24 23:58:00,
2013-05-24 19:02:00,63.4,54.2,30.06,SSE,159,4.0,17.0,72,0.00,,,0.10,Wunderground v.1.15,2013-05-25 00:02:00,
2013-05-24 19:03:00,63.4,55.0,30.06,South,176,4.0,17.0,74,0.00,,,0.10,Wunderground v.1.15,2013-05-25 00:03:00,
2013-05-24 19:05:00,63.3,54.9,30.06,SE,139,3.0,17.0,74,0.00,,,0.10,Wunderground v.1.15,2013-05-25 00:05:00,
2013-05-24 19:10:00,63.2,55.1,30.06,SE,135,3.0,17.0,75,0.00,,,0.10,Wunderground v.1.15,2013-05-25 00:10:00,
2013-05-24 19:12:00,63.1,55.0,30.07,SE,136,3.0,17.0,75,0.00,,,0.10,Wunderground v.1.15,2013-05-25 00:12:00,
2013-05-24 19:16:00,63.0,54.9,30.07,SSE,159,4.0,17.0,75,0.00,,,0.10,Wunderground v.1.15,2013-05-25 00:16:00,
2013-05-24 19:18:00,62.9,54.5,30.07,SE,134,4.0,17.0,74,0.00,,,0.10,Wunderground v.1.15,2013-05-25 00:18:00,
2013-05-24 19:22:00,62.9,54.5,30.06,SE,129,5.0,17.0,74,0.00,,,0.10,Wunderground v.1.15,2013-05-25 00:22:00,
2013-05-24 19:24:00,63.0,54.6,30.06,SSE,153,6.0,17.0,74,0.00,,,0.10,Wunderground v.1.15,2013-05-25 00:24:00,
2013-05-24 19:27:00,63.0,54.6,30.06,ESE,118,7.0,17.0,74,0.00,,,0.10,Wunderground v.1.15,2013-05-25 00:27:00,
2013-05-24 19:30:00,62.9,54.1,30.06,SE,142,7.0,7.0,73,0.00,,,0.10,Wunderground v.1.15,2013-05-25 00:30:00,
2013-05-24 19:32:00,62.9,54.1,30.06,SE,135,7.0,8.0,73,0.00,,,0.10,Wunderground v.1.15,2013-05-25 00:32:00,
2013-05-24 19:36:00,62.9,54.5,30.06,SE,143,7.0,17.0,74,0.00,,,0.10,Wunderground v.1.15,2013-05-25 00:36:00,
2013-05-24 19:38:00,62.9,54.9,30.06,SE,129,7.0,17.0,75,0.00,,,0.10,Wunderground v.1.15,2013-05-25 00:38:00,
2013-05-24 19:40:00,62.8,54.8,30.05,SE,134,7.0,17.0,75,0.00,,,0.10,Wunderground v.1.15,2013-05-25 00:40:00,
2013-05-24 19:42:00,62.7,54.7,30.05,SE,135,7.0,17.0,75,0.00,,,0.10,Wunderground v.1.15,2013-05-25 00:42:00,
2013-05-24 19:47:00,62.6,54.9,30.05,SE,136,7.0,17.0,76,0.00,,,0.10,Wunderground v.1.15,2013-05-25 00:47:00,
2013-05-24 19:49:00,62.5,54.8,30.05,SE,124,7.0,17.0,76,0.00,,,0.10,Wunderground v.1.15,2013-05-25 00:49:00,
2013-05-24 19:52:00,62.4,55.1,30.05,SE,131,7.0,17.0,77,0.00,,,0.10,Wunderground v.1.15,2013-05-25 00:52:00,
2013-05-24 19:54:00,62.4,55.1,30.05,SE,131,7.0,17.0,77,0.00,,,0.10,Wunderground v.1.15,2013-05-25 00:54:00,
2013-05-24 19:56:00,62.4,55.4,30.05,SE,138,7.0,17.0,78,0.00,,,0.10,Wunderground v.1.15,2013-05-25 00:56:00,
2013-05-24 20:00:00,62.4,54.7,30.05,SE,134,7.0,17.0,76,0.00,,,0.10,Wunderground v.1.15,2013-05-25 01:00:00,
2013-05-24 20:02:00,62.5,54.8,30.05,SE,129,8.0,17.0,76,0.00,,,0.10,Wunderground v.1.15,2013-05-25 01:02:00,
2013-05-24 20:06:00,62.6,54.6,30.05,SE,142,8.0,17.0,75,0.00,,,0.10,Wunderground v.1.15,2013-05-25 01:06:00,
2013-05-24 20:07:00,62.7,54.3,30.05,SSE,155,8.0,17.0,74,0.00,,,0.10,Wunderground v.1.15,2013-05-25 01:07:00,
2013-05-24 20:09:00,62.7,53.9,30.05,SE,135,9.0,9.0,73,0.00,,,0.10,Wunderground v.1.15,2013-05-25 01:09:00,
2013-05-24 20:14:00,62.8,53.6,30.04,SE,136,9.0,17.0,72,0.00,,,0.10,Wunderground v.1.15,2013-05-25 01:14:00,
2013-05-24 20:16:00,62.8,53.6,30.04,SE,136,9.0,17.0,72,0.00,,,0.10,Wunderground v.1.15,2013-05-25 01:16:00,
2013-05-24 20:18:00,62.8,54.0,30.05,SE,134,8.0,17.0,73,0.00,,,0.10,Wunderground v.1.15,2013-05-25 01:18:00,
2013-05-24 20:20:00,62.8,54.0,30.05,ESE,122,8.0,8.0,73,0.00,,,0.10,Wunderground v.1.15,2013-05-25 01:20:00,
2013-05-24 20:24:00,62.6,53.8,30.05,SE,131,7.0,17.0,73,0.00,,,0.10,Wunderground v.1.15,2013-05-25 01:24:00,
2013-05-24 20:26:00,62.5,53.3,30.05,ESE,118,7.0,17.0,72,0.00,,,0.10,Wunderground v.1.15,2013-05-25 01:26:00,
2013-05-24 20:28:00,62.5,53.7,30.05,SE,143,7.0,17.0,73,0.00,,,0.10,Wunderground v.1.15,2013-05-25 01:28:00,
2013-05-24 20:29:00,62.5,53.7,30.05,SE,128,7.0,17.0,73,0.00,,,0.10,Wunderground v.1.15,2013-05-25 01:29:00,
2013-05-24 20:34:00,62.4,53.6,30.05,SE,144,8.0,17.0,73,0.00,,,0.10,Wunderground v.1.15,2013-05-25 01:34:00,
2013-05-24 20:38:00,62.2,54.2,30.05,SE,129,8.0,17.0,75,0.00,,,0.10,Wunderground v.1.15,2013-05-25 01:38:00,
2013-05-24 20:40:00,62.2,53.8,30.06,SE,129,8.0,17.0,74,0.00,,,0.10,Wunderground v.1.15,2013-05-25 01:40:00,
2013-05-24 20:42:00,62.1,53.7,30.05,SE,139,8.0,17.0,74,0.00,,,0.10,Wunderground v.1.15,2013-05-25 01:42:00,
2013-05-24 20:44:00,62.1,54.1,30.05,SE,125,8.0,17.0,75,0.00,,,0.10,Wunderground v.1.15,2013-05-25 01:44:00,
2013-05-24 20:46:00,62.0,54.0,30.05,SE,137,8.0,17.0,75,0.00,,,0.10,Wunderground v.1.15,2013-05-25 01:46:00,
2013-05-24 20:48:00,61.9,53.9,30.05,SE,142,8.0,17.0,75,0.00,,,0.10,Wunderground v.1.15,2013-05-25 01:48:00,
2013-05-24 20:51:00,61.8,53.8,30.05,SE,142,8.0,17.0,75,0.00,,,0.10,Wunderground v.1.15,2013-05-25 01:51:00,
2013-05-24 20:55:00,61.8,53.1,30.04,SE,136,9.0,17.0,73,0.00,,,0.10,Wunderground v.1.15,2013-05-25 01:55:00,
2013-05-24 21:00:00,61.9,53.5,30.04,SE,129,9.0,17.0,74,0.00,,,0.10,Wunderground v.1.15,2013-05-25 02:00:00,
2013-05-24 21:02:00,61.9,53.1,30.04,SSE,148,10.0,17.0,73,0.00,,,0.10,Wunderground v.1.15,2013-05-25 02:02:00,
2013-05-24 21:06:00,61.8,53.4,30.04,SE,136,10.0,17.0,74,0.00,,,0.10,Wunderground v.1.15,2013-05-25 02:06:00,
2013-05-24 21:08:00,61.7,53.0,30.04,SE,144,10.0,17.0,73,0.00,,,0.10,Wunderground v.1.15,2013-05-25 02:08:00,
2013-05-24 21:12:00,61.5,53.5,30.05,East,101,9.0,17.0,75,0.00,,,0.10,Wunderground v.1.15,2013-05-25 02:12:00,
2013-05-24 21:14:00,61.4,53.4,30.05,SE,125,9.0,17.0,75,0.00,,,0.10,Wunderground v.1.15,2013-05-25 02:14:00,
2013-05-24 21:17:00,61.3,53.7,30.04,ESE,122,9.0,17.0,76,0.00,,,0.10,Wunderground v.1.15,2013-05-25 02:17:00,
2013-05-24 21:19:00,61.3,54.0,30.04,SE,134,9.0,9.0,77,0.00,,,0.10,Wunderground v.1.15,2013-05-25 02:19:00,
2013-05-24 21:22:00,61.3,54.0,30.04,SSE,155,8.0,17.0,77,0.00,,,0.10,Wunderground v.1.15,2013-05-25 02:22:00,
2013-05-24 21:24:00,61.3,54.0,30.04,SE,134,8.0,17.0,77,0.00,,,0.10,Wunderground v.1.15,2013-05-25 02:24:00,
2013-05-24 21:26:00,61.2,53.6,30.04,SE,136,8.0,17.0,76,0.00,,,0.10,Wunderground v.1.15,2013-05-25 02:26:00,
2013-05-24 21:28:00,61.2,53.9,30.04,SE,138,9.0,17.0,77,0.00,,,0.10,Wunderground v.1.15,2013-05-25 02:28:00,
2013-05-24 21:30:00,61.2,53.9,30.04,SE,136,9.0,17.0,77,0.00,,,0.10,Wunderground v.1.15,2013-05-25 02:30:00,
2013-05-24 21:32:00,61.2,53.9,30.04,SE,141,9.0,17.0,77,0.00,,,0.10,Wunderground v.1.15,2013-05-25 02:32:00,
2013-05-24 21:36:00,61.0,53.7,30.05,SSE,148,9.0,17.0,77,0.00,,,0.10,Wunderground v.1.15,2013-05-25 02:36:00,
2013-05-24 21:37:00,60.9,53.3,30.05,SE,125,9.0,17.0,76,0.00,,,0.10,Wunderground v.1.15,2013-05-25 02:37:00,
2013-05-24 21:39:00,60.7,53.4,30.06,SE,139,9.0,9.0,77,0.00,,,0.10,Wunderground v.1.15,2013-05-25 02:39:00,
2013-05-24 21:42:00,60.7,53.8,30.06,SE,139,8.0,17.0,78,0.00,,,0.10,Wunderground v.1.15,2013-05-25 02:42:00,
2013-05-24 21:46:00,60.6,53.3,30.07,SE,139,7.0,17.0,77,0.00,,,0.10,Wunderground v.1.15,2013-05-25 02:46:00,
2013-05-24 21:48:00,60.5,53.6,30.07,SE,135,7.0,17.0,78,0.00,,,0.10,Wunderground v.1.15,2013-05-25 02:48:00,
2013-05-24 21:54:00,60.5,53.6,30.07,SE,134,7.0,17.0,78,0.00,,,0.10,Wunderground v.1.15,2013-05-25 02:54:00,
2013-05-24 21:56:00,60.4,53.5,30.07,SSE,150,7.0,17.0,78,0.00,,,0.10,Wunderground v.1.15,2013-05-25 02:56:00,
2013-05-24 21:59:00,60.4,52.8,30.07,SE,135,7.0,7.0,76,0.00,,,0.10,Wunderground v.1.15,2013-05-25 02:59:00,
2013-05-24 22:01:00,60.4,52.8,30.08,SE,127,7.0,17.0,76,0.00,,,0.10,Wunderground v.1.15,2013-05-25 03:01:00,
2013-05-24 22:04:00,60.5,52.9,30.08,ESE,118,7.0,17.0,76,0.00,,,0.10,Wunderground v.1.15,2013-05-25 03:04:00,
2013-05-24 22:06:00,60.5,52.9,30.08,SSE,153,7.0,17.0,76,0.00,,,0.10,Wunderground v.1.15,2013-05-25 03:06:00,
2013-05-24 22:08:00,60.5,52.9,30.08,SSE,150,7.0,17.0,76,0.00,,,0.10,Wunderground v.1.15,2013-05-25 03:08:00,
2013-05-24 22:10:00,60.6,53.3,30.08,SE,143,8.0,8.0,77,0.00,,,0.10,Wunderground v.1.15,2013-05-25 03:10:00,
2013-05-24 22:12:00,60.6,53.0,30.08,SE,141,8.0,10.0,76,0.00,,,0.10,Wunderground v.1.15,2013-05-25 03:12:00,
2013-05-24 22:14:00,60.6,53.0,30.08,SE,142,8.0,17.0,76,0.00,,,0.10,Wunderground v.1.15,2013-05-25 03:14:00,
2013-05-24 22:18:00,60.5,52.9,30.08,SE,141,8.0,17.0,76,0.00,,,0.10,Wunderground v.1.15,2013-05-25 03:18:00,
2013-05-24 22:20:00,60.5,52.5,30.08,SE,139,8.0,17.0,75,0.00,,,0.10,Wunderground v.1.15,2013-05-25 03:20:00,
2013-05-24 22:21:00,60.5,52.9,30.08,SE,142,8.0,17.0,76,0.00,,,0.10,Wunderground v.1.15,2013-05-25 03:21:00,
2013-05-24 22:23:00,60.5,52.5,30.08,SE,137,8.0,17.0,75,0.00,,,0.10,Wunderground v.1.15,2013-05-25 03:23:00,
2013-05-24 22:30:00,60.4,52.4,30.08,SSE,147,9.0,9.0,75,0.00,,,0.10,Wunderground v.1.15,2013-05-25 03:30:00,
2013-05-24 22:32:00,60.4,52.8,30.08,SE,141,8.0,17.0,76,0.00,,,0.10,Wunderground v.1.15,2013-05-25 03:32:00,
2013-05-24 22:34:00,60.4,53.2,30.09,SE,129,8.0,17.0,77,0.00,,,0.10,Wunderground v.1.15,2013-05-25 03:34:00,
2013-05-24 22:36:00,60.3,53.1,30.08,SE,135,8.0,17.0,77,0.00,,,0.10,Wunderground v.1.15,2013-05-25 03:36:00,
2013-05-24 22:38:00,60.3,53.1,30.09,SE,134,8.0,17.0,77,0.00,,,0.10,Wunderground v.1.15,2013-05-25 03:38:00,
2013-05-24 22:41:00,60.2,52.6,30.09,SE,138,8.0,17.0,76,0.00,,,0.10,Wunderground v.1.15,2013-05-25 03:41:00,
2013-05-24 22:46:00,60.2,53.0,30.09,SE,139,8.0,17.0,77,0.00,,,0.10,Wunderground v.1.15,2013-05-25 03:46:00,
2013-05-24 22:48:00,60.2,53.0,30.09,SE,135,8.0,17.0,77,0.00,,,0.10,Wunderground v.1.15,2013-05-25 03:48:00,
2013-05-24 22:50:00,60.2,53.3,30.09,SE,139,8.0,8.0,78,0.00,,,0.10,Wunderground v.1.15,2013-05-25 03:50:00,
2013-05-24 22:52:00,60.1,52.9,30.09,SE,140,8.0,17.0,77,0.00,,,0.10,Wunderground v.1.15,2013-05-25 03:52:00,
2013-05-24 22:56:00,60.1,52.9,30.09,SE,125,8.0,17.0,77,0.00,,,0.10,Wunderground v.1.15,2013-05-25 03:56:00,
2013-05-24 22:58:00,60.1,53.2,30.08,ESE,119,8.0,17.0,78,0.00,,,0.10,Wunderground v.1.15,2013-05-25 03:58:00,
2013-05-24 23:00:00,60.1,52.9,30.08,SE,141,8.0,17.0,77,0.00,,,0.10,Wunderground v.1.15,2013-05-25 04:00:00,
2013-05-24 23:02:00,60.1,53.2,30.08,SE,139,8.0,17.0,78,0.00,,,0.10,Wunderground v.1.15,2013-05-25 04:02:00,
2013-05-24 23:04:00,60.0,52.8,30.09,SSE,148,8.0,17.0,77,0.00,,,0.10,Wunderground v.1.15,2013-05-25 04:04:00,
2013-05-24 23:08:00,60.0,53.5,30.09,SSE,150,8.0,17.0,79,0.00,,,0.10,Wunderground v.1.15,2013-05-25 04:08:00,
2013-05-24 23:11:00,59.9,53.4,30.08,SE,124,8.0,17.0,79,0.00,,,0.10,Wunderground v.1.15,2013-05-25 04:11:00,
2013-05-24 23:13:00,59.9,53.4,30.08,SE,132,8.0,17.0,79,0.00,,,0.10,Wunderground v.1.15,2013-05-25 04:13:00,
2013-05-24 23:18:00,59.7,53.5,30.08,SE,125,8.0,17.0,80,0.00,,,0.10,Wunderground v.1.15,2013-05-25 04:18:00,
2013-05-24 23:20:00,59.7,53.5,30.08,SSE,149,9.0,17.0,80,0.00,,,0.10,Wunderground v.1.15,2013-05-25 04:20:00,
2013-05-24 23:22:00,59.6,53.4,30.07,SE,137,9.0,17.0,80,0.00,,,0.10,Wunderground v.1.15,2013-05-25 04:22:00,
2013-05-24 23:24:00,59.6,53.1,30.08,SSE,159,9.0,17.0,79,0.00,,,0.10,Wunderground v.1.15,2013-05-25 04:24:00,
2013-05-24 23:28:00,59.5,53.0,30.08,SE,141,9.0,17.0,79,0.00,,,0.10,Wunderground v.1.15,2013-05-25 04:28:00,
2013-05-24 23:30:00,59.4,52.9,30.08,SSE,153,9.0,17.0,79,0.00,,,0.10,Wunderground v.1.15,2013-05-25 04:30:00,
2013-05-24 23:32:00,59.4,53.2,30.08,SE,141,9.0,17.0,80,0.00,,,0.10,Wunderground v.1.15,2013-05-25 04:32:00,
2013-05-24 23:33:00,59.4,53.2,30.08,SE,132,9.0,17.0,80,0.00,,,0.10,Wunderground v.1.15,2013-05-25 04:33:00,
2013-05-24 23:35:00,59.3,53.1,30.08,SSE,148,9.0,17.0,80,0.00,,,0.10,Wunderground v.1.15,2013-05-25 04:35:00,
2013-05-24 23:38:00,59.3,53.5,30.08,SE,131,8.0,17.0,81,0.00,,,0.10,Wunderground v.1.15,2013-05-25 04:38:00,
2013-05-24 23:40:00,59.3,53.1,30.09,SE,138,8.0,17.0,80,0.00,,,0.10,Wunderground v.1.15,2013-05-25 04:40:00,
2013-05-24 23:42:00,59.3,53.1,30.08,SSE,152,8.0,17.0,80,0.00,,,0.10,Wunderground v.1.15,2013-05-25 04:42:00,
2013-05-24 23:46:00,59.3,53.1,30.08,SE,138,8.0,17.0,80,0.00,,,0.10,Wunderground v.1.15,2013-05-25 04:46:00,
2013-05-24 23:48:00,59.3,53.1,30.08,SSE,149,8.0,17.0,80,0.00,,,0.10,Wunderground v.1.15,2013-05-25 04:48:00,
2013-05-24 23:52:00,59.3,52.4,30.08,ESE,122,9.0,17.0,78,0.00,,,0.10,Wunderground v.1.15,2013-05-25 04:52:00,
2013-05-24 23:54:00,59.3,52.8,30.08,SE,137,9.0,17.0,79,0.00,,,0.10,Wunderground v.1.15,2013-05-25 04:54:00,
2013-05-24 23:56:00,59.4,52.5,30.08,SE,132,9.0,17.0,78,0.00,,,0.10,Wunderground v.1.15,2013-05-25 04:56:00,
2013-05-24 23:58:00,59.4,52.9,30.07,SE,129,9.0,17.0,79,0.00,,,0.10,Wunderground v.1.15,2013-05-25 04:58:00,